Theta_e
322 327 326 324 327 329 326 319 316 321 318 311 312 314 313 313 312 309 310 311 308 310 313 311 311 311 310 311 306 300 299 298 298 298 297 296 295 294 294 293 293 293 293 292 292 292 291 291 291 291 290 290 290 290 290 289 288 288 288 287 287 286 286 285 285 285 284 284 284 283 283 283 283 284 283 283 283 283 283 282 282 282 282 281 281 281
322 323 327 330 327 324 322 318 314 313 312 310 312 313 313 312 311 309 309 309 307 309 313 312 311 311 310 309 307 303 300 299 298 298 298 296 295 294 294 293 293 293 293 292 292 291 291 291 291 291 290 290 290 290 290 289 288 288 288 287 286 286 286 285 285 284 284 283 283 283 283 282 282 282 282 282 282 282 282 281 281 281 281 281 281 281
326 324 329 329 321 315 314 313 312 311 311 312 313 313 314 314 313 313 311 309 307 308 312 313 310 309 309 308 306 304 301 300 299 299 299 297 296 295 294 293 293 293 293 293 292 290 290 291 291 291 290 290 290 290 289 289 288 288 288 287 286 286 286 285 284 284 283 283 283 282 282 282 281 282 282 281 281 281 281 281 281 281 281 280 280 280
324 329 329 319 313 312 312 312 311 311 311 313 313 314 315 314 314 317 315 312 310 309 311 312 308 307 307 307 307 305 302 301 300 299 299 298 297 295 294 294 293 293 293 293 293 291 290 290 290 290 290 290 290 289 289 289 288 288 288 287 286 286 285 285 284 283 283 283 283 282 282 281 281 281 281 281 281 281 281 280 280 280 280 280 280 280
323 323 316 313 312 312 314 313 312 312 315 319 316 314 316 315 314 315 313 312 312 313 312 309 308 311 309 308 308 305 302 301 301 300 299 299 297 296 295 294 293 293 293 293 293 291 289 289 290 290 290 290 289 289 289 288 288 288 287 287 286 286 285 284 284 283 283 282 282 282 281 281 281 281 281 281 281 280 280 280 280 280 280 279 279 279
322 314 308 313 313 313 314 315 317 315 316 323 322 316 316 316 314 314 313 311 313 317 313 308 313 320 315 310 309 306 303 301 301 300 299 298 296 295 294 293 293 293 293 292 292 291 289 289 290 290 290 289 289 289 289 288 288 288 287 287 286 285 285 284 284 283 282 282 282 281 281 281 280 280 280 280 280 280 279 279 279 279 279 279 279 279
316 309 310 317 316 315 314 316 320 317 315 321 320 316 316 315 313 313 311 311 316 317 311 308 313 317 313 312 311 309 307 304 301 300 299 298 297 295 294 293 293 292 293 292 292 291 289 289 290 290 289 290 289 289 289 288 288 288 287 287 286 285 285 284 283 283 282 281 281 281 280 280 280 280 279 279 279 279 279 279 279 279 279 279 279 279
313 309 313 315 316 317 315 318 320 315 318 323 316 314 316 313 312 311 309 309 314 312 309 309 309 309 310 310 309 308 309 307 303 300 298 297 297 295 294 293 293 292 292 292 292 292 289 288 289 290 290 290 289 289 289 288 288 288 287 287 286 285 284 284 283 282 282 281 281 280 280 280 280 279 279 279 279 279 278 278 278 278 278 278 278 278
313 314 316 315 315 316 317 325 322 314 320 321 311 309 310 308 309 309 307 309 310 308 310 310 307 310 313 311 307 304 305 308 306 303 300 297 297 296 294 293 292 292 292 292 292 292 289 288 290 290 290 290 289 289 289 288 288 287 287 286 285 285 284 283 283 282 282 281 280 280 280 279 279 279 279 278 278 278 278 278 278 278 278 278 278 278
312 312 316 318 317 317 320 321 316 314 317 314 308 311 312 312 312 309 307 310 311 309 312 312 308 312 317 315 310 305 306 309 307 304 302 299 297 296 294 293 292 292 292 292 292 290 288 289 291 290 290 290 289 289 288 288 288 287 286 286 285 284 284 283 282 282 281 281 280 280 279 279 279 278 278 278 278 278 277 277 277 277 277 277 277 277
312 307 310 315 315 317 319 312 307 310 311 309 311 315 316 315 313 311 310 310 312 315 316 313 309 312 317 316 313 312 314 313 310 308 304 300 298 296 294 293 292 292 291 291 291 289 288 290 291 290 290 289 289 289 288 288 288 287 286 285 285 284 283 283 282 281 281 280 280 279 279 279 278 278 278 277 277 277 277 277 277 277 277 277 277 277
314 309 311 314 312 313 316 311 307 309 309 310 315 317 318 319 317 315 313 312 316 322 319 310 307 309 314 316 314 313 311 308 309 312 310 304 298 296 294 293 292 292 291 291 291 290 288 289 289 289 289 289 289 288 288 288 287 286 285 284 284 284 283 282 281 281 280 280 279 279 278 278 278 278 277 277 277 277 276 276 276 276 276 276 276 276
317 315 313 311 308 310 316 316 311 311 312 312 314 318 320 323 324 323 319 316 319 322 312 303 305 310 311 312 311 311 309 305 304 306 307 306 300 296 294 293 292 291 291 291 291 291 291 289 288 287 289 289 289 289 288 288 286 285 285 284 283 283 282 281 281 280 280 279 279 278 278 278 277 277 277 276 276 276 276 276 276 276 276 276 276 276
322 319 312 310 311 311 314 315 315 317 314 310 313 320 324 325 328 328 324 320 320 320 308 300 306 312 311 312 310 309 309 307 304 301 301 303 301 297 294 293 292 291 290 291 290 291 291 289 287 287 289 289 288 288 288 287 286 285 284 283 283 282 282 281 280 280 279 279 278 278 277 277 277 277 276 276 276 276 275 275 275 275 275 275 275 275
322 321 317 314 314 311 310 313 320 322 314 308 312 317 322 325 328 328 327 325 322 320 310 302 309 316 315 314 310 307 305 303 301 299 297 300 300 297 295 293 292 290 290 290 290 291 290 288 287 288 289 289 288 288 287 286 286 285 284 283 282 282 281 280 280 279 279 278 278 277 277 277 276 276 276 275 275 275 275 275 274 274 275 275 275 275
318 321 318 310 308 308 309 310 313 319 316 308 309 313 317 321 323 322 322 320 315 315 312 307 311 314 311 309 307 305 301 298 298 296 295 298 298 296 294 292 291 290 290 290 290 291 290 287 287 288 289 288 288 288 287 286 285 284 283 282 282 281 280 280 279 278 278 277 277 277 276 276 276 275 275 275 275 274 274 274 274 274 274 274 275 275
318 321 314 305 306 306 304 305 307 315 318 310 308 314 313 311 316 319 317 311 308 312 315 312 312 311 311 311 306 302 299 298 298 296 294 295 296 295 294 292 291 290 290 290 290 291 290 287 286 288 289 288 288 287 286 286 285 284 283 282 281 280 280 279 279 278 277 277 276 276 276 275 275 275 275 274 274 274 273 273 273 274 274 274 274 274
316 319 312 307 311 304 298 302 305 306 310 312 315 313 307 305 310 316 317 313 309 313 316 313 311 312 316 314 305 301 301 301 299 295 293 293 293 294 293 291 291 290 290 290 290 291 289 286 286 288 288 288 288 287 286 285 284 283 282 281 280 280 279 279 278 277 277 276 276 275 275 275 274 274 274 274 273 273 273 273 273 273 273 274 274 274
315 316 314 305 307 304 299 305 309 303 302 309 312 307 306 311 313 312 314 316 316 316 316 316 314 314 316 316 311 307 305 305 302 295 292 293 293 292 292 291 290 290 290 290 290 291 289 286 286 287 288 288 287 286 285 284 283 282 281 280 280 279 278 278 277 277 276 275 275 275 274 274 274 274 273 273 272 272 272 272 273 273 273 273 274 274
314 315 318 304 301 304 303 307 315 309 301 302 303 301 304 311 313 313 312 315 319 318 317 319 318 316 317 319 320 315 309 308 304 295 291 292 292 292 291 291 290 290 290 290 289 290 290 286 286 288 288 287 287 285 285 284 282 282 281 280 279 279 278 277 276 276 275 275 274 274 274 273 273 273 272 272 272 272 272 272 272 273 273 273 273 273
314 315 318 308 301 305 308 309 313 312 307 304 304 304 303 304 308 312 309 310 315 317 316 318 317 317 316 317 319 316 311 309 305 298 293 292 292 291 291 291 290 290 289 290 289 290 290 287 285 287 288 287 286 285 284 283 282 281 280 279 279 278 277 277 276 275 274 274 274 273 273 273 272 272 272 271 271 271 272 272 272 272 273 273 273 273
316 316 317 313 307 308 310 308 307 309 310 308 308 308 306 305 308 311 311 309 310 312 315 317 317 316 313 313 315 315 312 308 303 298 294 293 292 291 291 290 290 290 290 289 289 290 290 287 285 286 286 286 285 284 283 282 281 280 279 278 278 277 276 276 275 274 274 273 273 273 272 272 272 271 271 271 271 271 271 272 272 272 272 273 273 273
316 317 315 315 313 309 305 304 303 305 305 306 307 307 306 306 308 312 314 312 309 309 311 313 315 314 311 311 313 311 310 306 300 296 295 294 292 291 291 290 290 290 290 289 289 290 289 285 285 285 285 285 284 283 282 281 280 279 279 278 277 276 276 275 274 274 273 272 272 272 272 271 271 271 271 271 271 271 271 271 272 272 272 272 272 272
313 316 315 315 317 310 303 303 303 302 301 304 307 305 305 306 307 310 313 313 313 311 310 311 314 314 309 308 306 303 301 299 296 294 295 294 292 291 290 290 290 290 289 289 289 289 287 285 284 284 284 284 283 283 281 280 279 279 278 277 276 275 275 274 273 273 272 272 272 271 271 271 270 270 270 270 271 271 271 271 271 271 271 271 271 271
313 317 316 315 318 316 310 308 308 304 302 304 306 305 304 305 307 309 310 310 312 311 310 312 315 314 309 304 302 298 297 297 294 293 294 293 292 291 290 290 289 289 289 289 289 289 288 287 285 283 283 283 283 282 281 280 279 278 277 276 275 274 274 273 273 272 271 271 271 271 270 270 270 270 270 270 270 270 271 271 271 271 271 271 270 270
314 318 316 314 316 316 313 315 316 311 304 303 305 304 304 305 306 308 309 309 310 311 310 311 314 314 310 306 303 299 298 298 295 292 292 292 292 291 290 290 289 289 289 289 289 289 289 288 285 282 282 283 282 281 280 279 278 277 276 275 274 274 273 272 272 271 271 270 270 270 270 270 269 269 269 269 269 270 270 270 270 270 270 269 269 269
318 319 314 313 315 314 312 313 315 312 308 307 307 304 303 304 305 307 309 310 311 311 311 311 312 312 311 310 308 305 302 298 296 294 292 291 292 291 290 289 289 288 289 289 288 288 287 287 285 283 281 282 281 280 279 278 277 276 275 274 273 273 272 271 271 270 270 270 269 269 269 269 269 269 269 269 269 270 270 270 269 269 269 268 268 268
320 317 312 313 313 312 313 312 312 313 312 311 309 306 303 303 304 306 308 309 311 312 312 311 311 312 311 310 310 310 307 300 296 295 293 291 291 291 289 289 289 288 288 288 288 287 287 286 285 283 281 281 281 279 278 277 276 275 274 273 272 272 271 271 270 270 269 269 268 268 268 268 268 268 268 268 269 269 269 268 268 268 267 267 267 267
316 315 313 313 312 311 312 311 312 313 312 311 311 310 306 303 303 305 306 307 309 311 312 311 311 312 311 310 310 310 310 306 300 296 294 292 291 290 289 289 289 288 288 288 287 287 286 286 285 283 280 280 280 279 277 276 275 274 273 272 271 271 270 270 269 269 268 268 268 268 268 267 267 267 268 268 268 268 267 267 267 267 267 266 266 267
312 313 313 313 312 312 311 311 311 311 311 311 311 311 309 306 304 303 304 305 307 308 309 310 310 310 310 309 309 308 309 309 304 298 294 292 291 290 290 289 289 288 288 287 287 286 286 285 284 282 279 278 279 277 276 275 274 273 272 271 270 270 269 269 268 268 267 267 267 267 267 267 267 267 267 267 267 266 266 266 266 266 266 266 266 266
309 313 314 312 313 313 312 311 311 311 311 311 310 311 311 309 307 305 304 304 305 306 307 307 308 309 308 308 308 308 308 307 303 298 295 292 291 290 290 289 289 288 288 287 286 286 284 283 283 282 279 278 277 276 275 274 272 272 271 270 269 269 269 268 267 267 267 267 267 266 266 266 267 267 266 266 265 265 265 265 265 265 265 265 266 266
307 312 314 313 313 314 312 312 312 310 310 310 310 310 309 309 310 308 307 307 306 307 307 307 308 308 307 307 308 307 307 306 304 300 295 291 290 290 290 289 289 288 287 287 286 285 284 283 282 281 279 277 276 275 274 272 271 271 270 269 268 268 268 268 267 266 266 266 266 266 266 266 266 265 265 264 264 264 264 264 264 265 265 266 266 266
307 310 312 312 313 313 312 311 310 310 311 311 311 311 310 309 309 309 309 309 308 308 309 309 309 308 308 308 309 308 307 305 304 301 296 292 291 290 289 289 289 288 287 286 285 284 284 282 281 279 277 276 275 274 272 271 270 269 269 268 268 268 268 267 266 266 266 266 266 265 265 265 265 264 264 263 264 264 264 264 264 265 265 266 266 267
306 309 310 311 313 312 309 307 309 310 313 314 313 314 314 311 310 310 310 309 309 309 309 309 310 309 309 309 309 309 308 304 301 299 296 293 291 290 289 289 289 288 287 286 285 284 283 281 279 277 276 275 273 272 271 270 269 268 268 268 268 268 267 266 266 265 265 265 265 265 265 264 263 263 263 263 263 263 263 264 264 265 266 266 267 267
306 307 309 310 312 310 306 308 312 313 314 314 313 313 313 312 311 310 309 309 308 308 309 309 309 308 309 309 308 308 308 304 300 298 296 294 292 291 290 289 288 288 286 285 284 283 282 279 277 276 275 273 272 271 270 268 268 268 268 268 267 267 266 265 265 265 265 265 264 264 263 263 262 262 262 262 263 263 263 264 265 265 266 266 267 267
307 306 308 310 310 308 308 311 314 314 313 312 312 309 307 308 309 307 309 309 307 307 308 307 307 308 308 308 308 307 304 300 297 295 294 292 292 291 290 289 288 287 286 285 284 282 280 278 276 275 273 272 270 269 268 267 267 268 268 267 266 266 265 265 264 264 264 264 264 263 262 262 261 261 261 262 262 263 263 264 265 266 266 266 266 266
307 307 308 309 311 311 311 312 313 313 313 313 312 309 307 307 308 308 310 311 308 308 308 306 306 307 306 306 306 303 298 296 296 295 293 291 291 291 290 289 288 287 285 284 282 280 278 276 275 274 272 270 269 268 267 266 267 268 267 266 266 265 265 264 264 263 263 263 262 262 261 261 261 261 261 261 262 263 264 264 265 265 265 266 266 266
306 308 309 310 311 312 312 313 313 314 315 313 312 309 307 307 307 307 309 309 308 308 307 307 307 305 305 306 303 298 296 297 300 299 294 290 289 289 289 288 286 285 283 281 278 277 275 274 273 271 270 269 268 267 266 266 267 267 266 265 265 264 264 263 263 262 262 262 261 261 260 260 260 260 261 261 262 263 264 264 265 265 265 265 265 265
304 307 308 310 311 312 313 314 314 314 315 314 310 305 302 304 306 306 308 309 308 308 307 306 306 305 306 305 298 296 298 301 302 301 295 289 287 288 287 285 283 282 279 277 276 274 273 272 271 269 269 268 266 265 265 266 267 267 265 265 264 263 263 262 262 261 261 261 260 260 260 260 260 260 261 261 262 263 264 264 264 264 264 264 264 264
304 305 307 308 310 311 312 314 313 313 314 312 307 300 298 302 307 309 311 311 310 310 308 306 305 305 305 301 296 296 300 302 302 299 292 287 286 286 284 283 281 279 277 275 274 273 272 271 269 268 267 266 265 265 265 266 267 266 265 264 263 263 262 261 261 260 260 260 260 260 260 260 260 261 261 262 262 263 263 264 264 264 264 264 264 264
304 306 306 307 309 310 312 313 313 313 313 309 303 298 298 303 307 311 312 311 310 312 308 304 304 304 302 298 295 296 298 299 298 294 287 285 285 284 282 280 278 276 275 273 273 272 270 269 269 268 266 265 264 264 265 266 266 265 264 263 262 262 261 261 261 260 260 260 259 260 260 261 261 261 261 262 263 263 263 263 263 263 263 263 264 265
306 306 305 307 309 308 311 312 311 312 313 305 298 297 300 305 309 310 310 309 311 312 308 303 302 303 300 296 295 296 297 295 292 288 285 285 284 282 280 278 276 275 274 272 272 271 269 268 267 267 265 264 264 264 265 266 266 264 263 263 262 261 261 261 261 260 260 259 259 260 260 261 261 261 262 262 263 262 262 263 263 263 263 263 264 265
308 308 306 307 308 308 309 310 310 313 311 301 297 297 300 306 310 309 308 308 309 310 307 302 300 299 298 296 294 294 294 292 288 286 285 284 283 280 278 277 276 275 273 272 271 270 268 267 267 266 264 263 263 264 265 266 265 264 263 262 262 261 262 262 261 260 259 259 259 260 260 261 261 261 262 262 262 262 262 262 263 263 263 264 264 265
310 310 308 308 309 310 309 309 311 313 307 300 300 303 302 303 307 309 308 306 305 304 303 301 299 297 296 296 294 292 291 289 287 285 285 283 281 279 277 276 275 274 272 271 270 269 268 267 266 265 263 262 263 264 265 265 265 264 262 262 262 262 262 262 261 260 259 259 259 260 260 260 261 261 262 262 262 262 262 262 262 263 263 264 264 265
312 312 312 310 309 310 311 310 310 310 303 299 302 307 304 302 304 307 308 306 303 299 298 299 299 295 294 294 293 290 289 288 286 285 284 282 280 278 276 275 274 273 271 270 269 268 267 266 265 264 262 262 262 263 264 265 265 264 262 262 262 261 262 262 261 259 259 259 259 259 260 260 261 261 261 261 261 261 262 262 262 262 263 264 265 265
313 312 312 312 310 309 309 309 308 306 303 300 301 305 305 303 302 304 305 304 303 299 296 297 298 295 293 294 293 290 288 287 285 284 283 282 279 277 276 274 273 271 270 269 268 267 266 264 263 262 262 262 262 262 263 264 264 263 263 262 262 261 261 260 259 259 259 259 259 259 260 260 260 261 261 261 261 261 261 262 262 262 264 264 265 265
311 309 309 311 311 311 311 310 309 307 305 302 301 301 302 302 301 301 302 301 301 299 296 296 296 295 293 293 292 290 288 286 285 284 283 281 279 277 276 274 272 270 269 268 267 266 264 263 262 262 262 261 261 262 262 263 263 263 263 263 263 262 261 260 258 258 258 259 259 259 259 260 260 260 260 261 261 261 261 261 262 263 264 264 265 266
311 309 307 308 310 311 311 312 311 308 307 304 302 300 300 300 299 298 299 299 299 298 295 295 295 294 292 292 291 290 287 285 285 284 282 280 279 277 275 273 272 270 268 267 266 265 264 263 262 262 262 261 261 262 263 263 263 263 264 264 263 263 262 261 259 258 258 258 258 259 259 260 260 259 260 260 260 260 260 261 262 263 264 264 265 267
310 309 309 309 309 309 310 311 310 308 308 306 303 300 300 300 300 298 297 296 297 297 295 294 293 292 292 291 290 289 287 285 285 284 282 280 279 277 275 273 271 269 268 266 265 264 264 264 263 262 262 261 261 262 263 263 263 264 264 264 263 262 262 261 260 259 258 258 258 258 259 259 259 259 259 259 260 260 260 261 262 263 264 265 266 267
310 310 310 310 309 310 310 310 309 309 309 309 306 303 301 300 300 299 297 295 297 297 296 294 292 291 291 291 290 289 287 286 284 283 282 280 278 276 274 272 270 268 266 265 264 263 264 264 264 263 262 261 261 262 263 263 263 264 264 263 262 262 261 261 260 259 258 258 258 258 259 259 259 259 259 259 259 260 260 261 262 263 264 265 266 267
312 312 311 310 311 312 311 310 310 310 310 310 309 306 303 301 300 300 298 296 296 296 295 294 293 292 291 290 289 288 287 286 284 283 281 280 278 275 273 271 269 267 265 264 263 262 262 262 263 263 262 261 262 262 262 263 264 264 263 262 261 261 260 259 259 258 258 258 258 258 258 258 258 258 258 259 259 259 259 260 261 262 263 264 265 266
Wind_Speed
4 3 2 5 6 7 7 7 6 5 6 3 3 3 5 5 7 6 5 6 2 2 8 9 9 12 13 11 10 11 11 11 11 10 11 11 11 12 11 11 11 10 10 16 22 20 16 13 10 8 6 5 4 2 3 6 9 12 14 15 17 19 21 23 26 27 27 28 27 27 27 29 32 32 30 29 29 29 28 29 31 31 30 29 30 30
5 2 6 8 9 7 6 6 5 4 4 2 3 4 5 5 8 9 4 6 1 3 7 6 7 10 13 14 9 9 11 14 16 15 15 16 14 12 12 13 12 9 8 12 17 19 17 13 10 8 5 3 2 1 1 5 8 12 15 16 18 20 22 23 24 24 25 24 24 24 25 26 27 27 26 25 26 26 26 27 29 29 29 30 32 32
4 3 10 8 5 4 3 5 6 3 4 2 2 1 5 3 4 8 4 5 2 2 6 7 7 9 12 16 10 11 14 15 17 20 18 18 17 15 14 13 12 10 9 10 12 16 17 14 12 9 6 4 2 2 1 5 9 13 16 17 19 21 21 22 21 22 23 23 24 24 25 25 25 24 24 25 25 26 27 29 29 29 30 32 33 33
1 6 8 3 6 8 3 3 5 2 1 3 3 2 5 3 1 5 4 5 3 2 6 9 9 7 9 17 13 11 14 13 15 18 15 14 16 16 15 14 14 14 12 11 11 13 16 15 13 11 8 5 4 3 1 5 9 13 17 18 19 20 20 20 21 22 23 24 26 25 26 25 24 25 26 26 26 27 30 33 32 32 32 33 33 33
6 5 3 5 5 7 4 1 3 2 3 3 5 6 6 5 5 6 3 5 5 4 4 7 9 6 6 14 13 4 7 11 11 12 13 12 12 11 11 13 13 13 12 12 12 11 13 15 15 13 9 6 5 3 2 4 8 12 16 18 18 19 19 20 21 22 23 25 27 27 28 28 28 29 30 31 33 34 34 34 34 34 34 34 32 32
7 4 5 6 3 4 5 2 4 6 2 5 5 9 9 8 7 6 5 6 5 4 3 5 6 7 2 7 12 2 3 10 8 10 15 14 11 10 12 14 13 12 11 11 12 12 13 16 16 14 11 8 6 3 2 4 8 11 15 17 17 18 19 20 21 22 23 24 25 26 26 26 26 26 27 28 32 37 37 36 37 36 35 34 33 33
3 2 4 6 5 4 5 4 5 7 4 3 4 6 7 5 3 4 3 3 2 3 2 3 1 9 3 4 12 6 5 11 8 10 16 14 12 13 14 14 13 12 11 9 9 11 13 15 16 15 13 9 5 3 2 4 7 11 15 17 17 18 19 19 20 21 23 23 24 24 23 23 23 24 27 29 30 33 36 38 40 40 38 35 34 35
3 2 4 4 5 5 5 5 6 8 7 3 4 4 5 3 2 2 1 1 3 3 4 3 4 8 7 6 10 6 7 12 11 13 15 12 14 16 16 14 13 14 12 9 9 10 12 15 17 17 14 8 5 3 2 4 7 10 14 17 17 18 18 18 19 21 22 22 23 23 23 24 24 25 30 33 33 34 35 37 39 40 40 39 37 36
3 4 4 5 4 4 6 6 7 10 5 5 4 4 5 4 3 2 1 3 2 3 7 5 7 5 9 5 3 2 5 13 14 16 16 15 16 18 16 14 14 13 11 10 10 10 12 17 19 17 12 7 4 3 3 4 7 10 14 17 18 17 18 18 19 21 22 22 22 23 23 24 26 27 30 32 34 35 36 38 40 41 41 42 41 39
1 4 7 7 5 6 5 3 6 9 4 3 5 5 5 5 4 3 2 1 2 1 9 7 7 4 8 4 2 2 3 11 13 14 14 15 16 15 14 13 13 11 9 9 10 11 15 20 20 16 11 7 5 4 5 5 7 10 13 16 17 18 18 18 19 21 22 21 22 23 23 25 27 28 30 31 33 35 37 39 42 42 42 43 43 42
2 1 3 4 4 6 4 2 1 4 3 3 5 5 5 5 4 4 2 3 3 3 10 9 10 8 6 3 5 4 6 9 9 10 9 11 13 13 12 13 14 12 9 9 8 11 16 19 18 15 12 8 5 5 6 6 8 10 13 15 17 18 17 18 19 20 20 21 22 23 23 24 27 28 29 30 33 35 37 38 41 42 43 44 45 45
4 1 2 2 2 4 6 4 2 3 3 4 4 4 4 4 4 4 4 4 1 5 7 5 8 9 8 6 5 6 8 8 8 9 10 11 13 13 12 13 14 12 10 10 9 9 12 13 14 14 13 9 7 7 7 8 8 10 12 14 16 18 17 17 18 19 20 21 22 23 24 25 26 27 28 30 33 35 36 38 40 42 43 45 46 46
3 4 3 2 1 5 6 4 2 5 4 5 4 4 3 4 4 3 3 0 3 7 3 1 3 6 11 10 9 11 14 12 10 10 10 10 11 12 13 14 12 10 10 10 9 9 8 8 11 14 14 11 9 9 9 9 9 10 12 13 16 18 17 17 18 19 20 21 23 24 24 25 26 27 28 29 32 34 35 37 40 42 43 45 47 47
4 4 1 1 3 4 8 6 2 2 1 5 4 4 3 1 1 4 4 3 5 6 2 3 3 4 8 8 12 18 19 14 9 9 10 7 8 11 13 13 11 11 11 10 10 9 8 8 12 15 15 13 10 10 11 10 9 10 12 13 16 18 18 18 18 19 20 21 23 23 24 25 26 27 28 29 31 34 36 37 39 41 42 44 47 47
4 6 3 6 2 4 9 6 5 5 4 4 4 4 4 5 3 4 4 4 6 6 3 2 2 4 4 3 8 13 11 7 5 7 7 6 7 9 9 10 10 11 11 9 9 9 9 11 15 16 15 13 11 11 11 10 9 10 12 13 16 18 18 18 19 20 21 22 23 24 25 25 26 27 28 29 30 32 36 38 40 42 42 43 47 49
3 8 5 2 1 4 6 3 4 6 3 2 3 4 3 5 5 3 3 4 2 6 5 3 3 6 4 4 5 5 5 5 5 6 4 6 6 7 8 10 10 11 10 9 10 9 9 12 16 16 15 14 13 12 11 9 9 11 12 14 15 17 18 19 20 21 22 23 24 24 25 26 26 27 29 31 32 33 35 38 40 42 43 44 47 49
2 6 3 1 2 2 2 2 1 3 3 2 3 3 4 4 5 2 3 1 4 3 6 3 6 7 4 6 6 4 3 7 6 6 4 7 7 8 10 10 11 12 12 10 10 9 9 11 15 17 17 15 14 13 11 9 10 11 12 13 15 17 19 20 21 22 23 23 24 25 25 26 26 27 30 32 34 36 37 38 39 41 44 45 46 47
3 5 3 2 1 1 1 1 2 2 3 5 3 5 3 3 3 3 1 3 2 4 6 3 8 10 4 6 3 3 3 10 9 7 5 5 7 10 11 10 11 12 11 10 9 9 9 11 15 17 17 15 14 13 10 9 10 11 12 13 15 17 20 21 22 23 23 23 24 25 25 25 26 28 30 32 35 37 38 38 39 40 43 44 44 45
2 3 4 1 2 2 3 1 1 3 2 5 3 3 3 3 1 2 2 3 2 4 7 5 9 12 8 6 5 3 8 12 11 7 6 8 11 11 10 10 11 10 9 9 9 8 8 10 15 18 17 15 14 12 9 9 11 11 12 13 15 17 20 21 22 22 23 23 24 25 26 26 27 28 30 32 34 35 36 38 40 40 42 43 43 44
3 2 4 2 1 2 2 1 4 2 1 2 0 1 1 3 4 3 3 3 3 4 8 7 9 13 9 6 6 9 10 12 11 9 9 12 13 12 10 11 11 11 11 10 10 9 7 10 16 18 16 15 14 10 9 10 11 12 12 13 16 19 21 22 22 23 23 24 24 26 27 27 28 30 31 33 33 35 36 37 38 39 40 41 42 41
3 2 4 2 3 1 3 5 8 9 6 3 2 2 2 2 1 1 2 2 3 4 6 4 7 16 10 6 8 10 9 11 12 10 11 13 13 12 11 11 12 12 12 10 9 9 8 10 15 17 16 15 12 9 9 10 11 12 12 14 17 19 21 22 23 23 24 25 25 26 27 29 30 31 32 33 33 35 36 37 37 38 39 39 39 39
3 3 4 2 2 5 5 3 4 8 8 7 7 7 8 6 3 2 4 4 3 5 6 2 5 17 10 5 6 7 8 10 11 11 11 12 13 12 11 12 13 12 12 10 9 9 8 9 13 15 15 14 11 10 9 10 11 11 13 15 17 19 20 22 23 24 24 25 26 27 28 30 32 32 33 34 35 36 36 37 37 36 37 37 37 36
3 2 3 4 5 5 5 3 1 2 1 3 4 5 6 6 6 6 8 5 2 5 4 4 4 16 7 6 5 6 6 8 8 10 11 10 11 12 11 11 11 10 10 9 9 8 8 10 13 15 15 14 11 10 10 10 10 11 13 14 16 19 20 21 23 24 24 25 26 28 29 31 32 33 34 34 36 37 37 37 36 35 35 36 35 35
2 2 3 5 3 2 3 4 3 4 3 2 6 5 7 9 9 8 6 2 2 5 3 3 8 16 4 4 2 2 2 4 5 10 11 10 9 10 11 11 10 10 9 9 9 7 7 9 11 13 13 13 11 11 10 9 9 11 13 14 15 18 20 21 22 23 24 25 27 29 30 31 32 33 34 35 36 38 37 36 35 35 34 34 34 33
3 3 3 4 5 4 4 3 3 3 1 4 6 5 9 12 9 3 0 1 4 6 7 5 14 17 5 3 1 2 3 4 5 8 9 8 8 9 10 10 10 10 9 10 9 8 7 8 8 10 12 12 11 11 8 7 8 11 12 13 15 17 19 21 22 22 24 26 28 29 30 30 32 33 34 36 37 36 36 34 34 34 32 33 34 33
5 4 5 6 8 8 7 5 4 3 3 3 4 7 12 15 14 8 3 4 9 8 10 10 17 19 12 3 1 2 5 6 6 7 7 7 8 9 9 10 10 10 11 12 11 9 8 7 7 9 11 12 11 9 6 7 9 11 12 13 15 16 18 20 21 22 24 25 27 29 30 32 35 36 36 36 37 35 34 34 35 35 33 32 34 34
3 3 8 11 12 13 14 11 5 6 4 5 7 12 14 15 17 12 5 8 10 5 7 17 21 21 24 19 10 9 10 8 8 8 8 8 8 8 10 11 11 11 11 11 10 9 8 7 7 8 10 11 9 6 5 7 9 11 12 14 15 16 17 19 20 23 25 27 29 31 34 37 39 39 37 37 37 35 35 36 35 34 34 33 33 34
3 5 13 15 17 18 18 15 6 7 7 10 10 13 13 14 15 13 13 18 10 3 10 24 23 20 27 27 20 17 14 9 9 10 10 11 11 10 11 11 11 11 10 10 10 9 9 9 8 7 9 10 7 6 6 8 9 10 11 14 15 15 16 19 22 25 27 30 32 33 36 39 39 38 36 34 34 35 36 36 33 32 33 33 33 34
4 9 14 13 16 20 19 17 9 6 9 10 12 16 13 13 16 18 23 25 14 9 19 26 23 23 27 24 21 22 18 11 12 13 11 11 11 10 10 11 12 13 12 12 11 10 10 9 7 7 8 8 7 7 8 8 8 9 11 13 14 15 17 20 24 27 28 29 31 33 38 40 37 34 32 31 34 36 36 33 32 34 33 31 32 33
4 9 12 8 11 18 18 17 10 8 12 12 19 26 15 13 19 23 24 23 20 21 26 26 27 30 28 24 23 25 19 10 9 10 9 10 10 11 12 14 14 14 14 13 11 10 10 9 7 7 7 8 8 8 8 8 8 9 11 12 14 17 20 22 25 26 27 27 30 34 37 37 33 30 29 32 36 37 36 34 34 36 35 36 36 33
5 7 6 4 6 16 17 12 7 9 12 14 25 31 19 14 19 21 20 19 19 23 26 26 27 27 25 25 25 22 15 8 8 9 10 11 11 13 14 14 14 14 13 12 11 10 9 8 7 6 7 8 9 9 9 8 7 9 10 12 15 19 21 22 23 24 25 28 31 33 35 32 30 30 32 35 37 38 37 37 36 37 38 41 41 38
5 4 1 4 5 14 11 4 4 3 4 12 28 33 23 17 18 18 18 18 18 21 24 23 21 20 22 24 20 15 10 10 12 12 11 10 11 14 15 15 15 15 14 13 11 10 9 9 8 7 7 10 11 10 8 7 7 8 9 12 15 17 19 21 22 23 24 28 30 31 31 31 31 33 35 36 37 38 38 37 37 38 39 39 40 42
6 5 3 4 7 11 4 5 5 4 2 12 22 23 21 20 18 18 19 21 22 20 18 18 18 19 21 20 17 14 11 11 13 12 10 10 11 13 14 15 16 16 15 14 12 11 11 9 8 9 10 11 11 10 7 5 6 6 7 12 14 16 18 20 21 22 24 26 28 29 29 30 32 34 35 36 37 38 37 37 37 38 38 40 41 41
7 8 5 5 5 7 2 6 5 2 7 14 8 5 12 16 18 22 23 24 24 20 18 19 20 21 22 18 16 18 14 10 10 10 9 10 11 12 14 15 15 14 13 12 11 11 10 7 8 12 13 12 11 8 5 4 5 6 9 12 14 15 17 19 20 22 24 26 28 29 30 31 33 34 36 37 38 38 37 36 37 38 38 37 37 34
9 8 5 4 4 3 3 5 1 9 15 11 4 3 9 12 14 18 20 22 24 21 20 22 23 24 25 20 18 18 15 9 8 9 9 11 12 13 15 15 14 14 13 12 12 10 7 7 10 12 13 12 10 7 4 4 4 7 10 12 14 15 16 18 21 22 24 26 28 29 31 32 33 34 36 37 38 38 37 36 36 37 35 31 30 31
10 8 4 4 3 1 2 5 10 12 11 14 12 4 4 2 3 5 10 21 24 19 17 21 24 25 24 21 19 14 7 4 4 5 8 12 13 14 15 15 15 16 15 13 12 10 10 13 15 15 14 12 9 7 4 3 4 8 10 11 13 15 17 18 20 21 23 26 29 30 31 32 34 35 36 37 37 37 37 37 36 35 34 32 31 31
9 8 5 6 6 6 8 10 12 11 13 21 21 8 6 6 7 6 9 22 22 13 15 20 22 21 21 20 15 4 4 3 5 7 9 10 11 11 12 14 15 15 13 12 14 16 19 21 19 17 15 12 9 6 4 2 5 8 10 11 13 15 17 18 19 20 23 26 28 30 31 32 33 35 36 36 36 37 37 36 35 34 33 33 33 32
10 9 9 9 8 8 9 9 11 10 13 20 14 3 5 8 9 7 6 17 20 10 13 16 18 19 19 15 6 4 6 1 8 10 7 8 8 8 7 9 11 12 12 14 17 20 22 21 18 17 14 12 9 5 2 3 6 8 10 12 14 15 17 17 18 21 23 27 29 30 31 31 32 34 35 35 36 37 37 35 34 33 33 33 33 33
10 8 9 8 8 9 9 10 11 10 14 17 7 4 4 6 8 7 2 12 20 12 13 15 16 18 16 9 7 7 5 3 10 9 6 10 10 10 11 11 10 11 14 20 24 25 23 21 18 16 13 11 8 5 1 4 6 9 11 13 14 15 16 16 19 22 24 27 30 30 30 31 31 32 34 35 35 35 36 36 35 34 33 33 33 34
9 7 7 8 10 12 12 12 9 6 11 12 4 6 5 8 11 6 5 14 14 6 11 14 15 15 11 7 9 8 7 8 9 5 7 12 10 9 11 13 12 12 15 21 25 26 24 21 19 16 12 10 9 5 3 5 7 10 11 12 13 14 15 17 21 23 25 27 28 29 29 30 31 32 33 34 35 35 35 35 35 35 35 34 33 32
5 6 7 9 13 15 15 13 7 6 11 9 8 11 8 7 7 4 13 13 4 4 8 11 12 11 8 9 9 9 9 7 2 5 10 12 11 9 10 12 15 17 19 23 25 25 22 20 18 16 12 10 8 5 5 6 8 11 11 12 13 14 16 19 22 23 25 26 27 28 29 30 30 32 33 32 33 35 34 34 34 34 35 34 32 32
4 4 5 9 11 11 12 11 7 8 10 7 12 12 10 6 5 12 10 3 4 6 7 8 10 9 9 11 11 9 5 3 6 10 12 13 13 12 11 12 12 13 17 21 23 23 21 18 16 15 12 9 8 7 6 7 9 11 11 12 13 14 17 19 22 23 24 26 26 27 29 30 30 31 32 32 33 34 35 34 33 34 34 32 31 32
8 5 4 8 8 5 6 7 6 9 8 15 17 7 7 9 13 13 6 1 4 8 7 7 9 9 9 12 11 6 5 5 8 11 12 13 13 13 14 13 11 10 14 18 19 21 21 18 15 14 12 10 9 8 6 7 9 11 12 12 12 14 17 19 21 23 24 24 25 26 27 29 30 30 30 32 33 34 33 34 34 34 33 30 30 30
8 7 6 7 7 5 5 9 11 10 9 19 18 11 14 19 17 12 9 7 5 5 6 7 8 9 10 11 10 8 7 7 9 11 12 12 12 12 13 12 11 11 13 16 19 21 21 18 15 13 12 11 9 8 7 7 9 10 11 11 12 14 17 18 20 22 22 23 24 25 26 27 28 29 29 31 33 33 32 33 33 33 32 30 29 28
13 15 9 6 8 9 9 12 11 6 8 16 18 16 16 19 16 7 6 8 5 5 6 6 7 9 10 10 10 9 8 8 10 12 13 13 12 12 13 12 11 13 15 19 21 20 19 19 18 16 14 11 10 8 7 7 8 10 10 9 11 14 16 18 20 21 21 23 24 24 26 26 26 28 29 30 31 32 33 33 32 31 31 31 29 27
11 10 4 2 7 8 10 13 9 5 8 16 20 15 8 10 11 5 5 7 7 6 7 7 8 10 10 10 10 9 8 10 12 11 12 13 12 11 12 11 11 13 17 19 19 19 19 18 18 18 16 12 9 8 7 6 7 9 8 8 10 13 14 16 18 19 20 22 23 24 25 25 25 28 29 29 29 29 31 33 31 29 30 31 29 28
5 6 5 5 6 6 11 18 15 13 16 17 15 13 10 8 7 7 8 9 7 7 9 9 9 10 11 12 12 11 10 12 13 12 10 12 12 12 12 11 9 11 15 17 19 21 21 18 16 17 16 13 9 7 6 6 7 7 7 8 9 11 13 15 16 18 19 21 22 23 23 24 25 27 29 30 30 28 29 31 31 28 29 30 30 29
5 7 7 9 12 11 15 19 11 8 14 16 12 11 13 12 10 10 10 9 7 8 9 9 8 10 10 11 12 12 11 12 14 14 12 11 11 11 10 9 9 11 15 19 22 23 20 18 18 18 16 14 10 7 7 6 6 6 6 7 8 10 12 14 15 16 18 19 21 22 22 23 24 25 26 29 31 30 29 30 30 29 30 31 30 30
6 7 8 10 13 12 16 20 11 2 8 15 15 15 16 16 16 14 11 8 7 8 9 8 8 9 11 12 12 12 13 13 14 15 14 12 11 10 8 8 10 14 18 21 22 21 19 19 20 20 17 14 11 8 7 6 5 5 5 6 7 9 11 13 14 15 16 18 20 21 21 23 24 24 25 25 27 30 30 28 26 27 30 32 32 31
8 10 8 7 8 11 15 22 18 9 10 16 16 19 22 19 15 14 12 9 10 12 12 11 8 7 10 12 13 14 15 13 13 14 15 13 12 11 9 9 10 13 18 22 20 18 18 19 20 20 18 14 11 9 7 6 5 4 4 5 6 7 9 12 13 15 16 17 19 20 21 22 24 24 25 24 24 27 30 31 28 24 24 29 32 33
14 18 14 11 14 18 21 24 18 12 13 18 16 16 18 16 14 15 16 15 16 16 14 14 13 10 9 10 11 14 16 14 14 15 13 12 12 11 12 15 14 13 18 23 22 19 19 19 19 20 18 14 12 10 8 6 5 3 3 3 5 6 8 9 11 13 15 16 18 19 20 21 22 23 24 24 23 24 27 31 34 33 28 28 30 33
Wind_Direction
82 73 266 229 233 240 232 197 174 172 162 171 198 220 237 242 273 262 237 280 280 232 263 243 239 260 267 256 217 196 193 204 213 209 208 207 205 207 205 207 206 206 208 200 193 187 176 162 149 136 108 83 79 72 27 13 11 12 11 9 7 2 359 0 0 359 358 358 354 349 347 345 343 341 339 338 337 337 336 335 334 334 333 331 327 324
66 92 242 227 220 223 217 179 139 126 138 149 200 247 272 220 256 277 271 298 295 184 265 254 243 258 262 263 233 176 188 207 209 208 210 207 207 209 205 207 208 206 207 200 197 196 186 166 151 144 122 105 111 138 18 5 6 9 10 9 5 1 1 1 358 355 354 354 350 344 341 338 334 333 331 329 330 331 330 330 331 332 331 329 327 325
24 247 248 238 195 143 98 124 125 129 141 138 158 217 282 237 262 290 300 327 9 173 269 275 261 258 263 268 243 181 196 213 210 209 209 205 205 207 203 204 205 202 204 198 198 201 194 173 156 155 149 147 166 186 305 354 1 6 8 6 3 1 360 357 354 351 349 348 346 342 338 334 329 328 327 325 326 328 328 329 331 331 330 328 327 325
258 248 246 214 140 129 91 79 113 94 141 169 163 184 266 265 285 284 300 338 330 232 271 287 279 260 260 269 255 199 203 217 216 216 216 210 208 208 204 204 201 198 199 196 196 200 196 181 167 167 168 168 182 201 285 348 358 3 5 3 0 358 355 352 350 347 346 345 344 341 337 334 330 327 327 326 328 330 329 329 330 329 328 326 324 322
239 241 159 109 120 143 146 37 136 178 285 242 198 200 244 260 233 237 281 336 319 297 305 314 300 268 233 255 261 227 212 230 222 217 223 223 217 209 209 213 207 200 197 194 194 196 196 189 179 176 177 180 189 207 280 346 357 360 1 359 356 353 350 349 347 344 344 344 342 340 337 337 335 332 332 332 331 330 328 327 326 325 324 323 322 321
261 252 131 120 108 130 149 215 196 179 248 294 231 209 227 246 248 261 321 353 339 323 343 15 326 280 233 251 263 270 218 238 219 212 224 221 211 204 211 214 208 207 204 196 192 189 191 189 181 180 184 188 195 210 279 339 352 355 355 353 350 348 348 347 344 341 342 343 341 339 336 335 333 329 328 329 327 325 324 323 321 321 321 321 320 320
262 356 87 132 140 131 156 237 234 169 141 300 251 200 205 221 247 278 336 7 294 268 288 71 306 274 282 250 259 244 222 243 227 222 230 220 209 209 214 210 202 206 206 200 195 186 186 185 181 185 190 191 197 211 265 330 343 347 347 346 345 344 345 342 338 339 341 341 338 335 331 328 325 321 320 321 321 319 319 319 318 318 319 319 319 318
170 76 56 103 120 136 175 240 229 159 133 245 235 134 123 128 171 206 135 237 248 279 281 180 168 270 273 244 262 252 233 255 248 234 235 222 215 217 216 208 202 204 199 193 193 186 186 185 185 189 191 193 197 212 265 315 330 338 340 341 341 340 340 337 333 337 339 338 335 331 327 324 322 319 317 318 318 316 316 315 315 316 317 317 317 315
149 157 185 153 130 181 207 223 192 157 156 241 204 115 96 104 134 146 121 263 291 4 293 231 149 257 272 239 294 337 233 258 256 241 235 222 218 219 215 206 204 205 196 189 188 186 187 186 189 191 187 190 198 219 262 294 315 328 335 336 336 336 335 331 331 336 337 334 330 328 325 322 320 318 316 316 316 315 315 314 314 315 315 315 315 314
129 199 194 155 163 213 216 221 182 164 191 219 139 94 59 64 66 62 65 306 33 10 268 248 154 221 274 212 155 25 236 247 252 247 237 223 221 219 211 204 204 204 196 194 189 186 189 188 189 190 187 192 200 222 254 281 303 320 330 330 329 330 328 326 330 334 331 330 328 327 325 320 317 317 316 316 314 314 315 314 314 314 314 314 313 313
316 287 176 151 187 195 148 98 144 150 160 131 90 53 23 31 43 39 50 69 46 268 259 240 176 191 277 238 175 199 219 222 235 250 244 225 220 214 205 202 203 201 193 194 193 189 190 188 184 184 189 196 203 220 245 270 290 311 322 322 321 322 322 323 328 329 325 327 327 326 325 318 314 315 315 314 312 312 313 312 311 312 312 312 311 312
334 333 227 238 181 131 101 83 42 34 82 98 75 51 11 343 11 15 2 48 59 253 261 244 183 193 241 244 215 229 237 225 221 241 240 221 214 207 202 203 202 198 191 187 190 190 186 183 180 184 194 202 209 223 240 257 276 302 313 314 314 314 318 321 323 322 322 327 328 327 323 315 313 314 312 311 309 309 310 309 309 310 310 310 310 311
302 230 252 306 197 143 113 89 19 355 37 91 91 75 44 336 354 342 309 33 228 245 251 119 160 223 243 244 246 252 255 245 227 235 242 224 212 203 200 204 199 189 189 187 185 185 179 179 183 188 198 206 214 228 237 247 270 297 307 309 306 307 316 319 319 322 324 327 328 325 319 313 312 311 309 307 306 306 307 307 307 308 308 308 309 309
292 292 303 176 261 177 151 154 196 259 144 145 147 127 128 114 355 284 267 270 271 265 237 116 127 261 271 256 231 234 248 253 238 240 247 231 209 204 201 200 193 187 191 188 183 183 180 183 187 190 198 207 217 229 232 242 271 295 304 304 299 304 315 318 319 324 327 327 326 320 316 313 311 309 307 305 303 304 305 305 305 304 305 305 305 305
244 292 223 177 231 185 177 184 162 143 145 172 156 133 150 153 179 242 240 254 287 299 262 152 146 234 254 270 222 227 255 277 270 258 252 232 209 200 197 191 187 190 191 187 183 183 184 186 188 191 197 207 219 225 226 244 278 295 298 297 298 306 314 318 323 328 328 327 323 318 315 313 310 308 305 303 302 302 303 304 303 302 303 303 302 302
208 264 252 218 267 168 182 209 126 117 116 199 130 114 180 181 172 214 228 213 298 320 279 202 217 228 227 271 238 226 282 291 288 284 244 220 204 179 187 190 188 192 190 187 186 183 187 188 187 190 197 208 219 219 224 252 285 294 293 296 300 307 315 322 327 329 328 325 320 317 315 312 310 307 304 302 302 301 302 302 301 301 302 302 301 301
206 272 286 349 321 128 164 242 139 140 173 165 137 180 216 173 135 162 273 337 69 301 273 231 258 276 308 282 233 175 274 272 278 282 227 210 197 182 195 195 189 193 190 187 185 180 184 186 186 191 199 210 215 214 226 262 289 290 291 297 302 311 322 328 330 329 327 323 318 316 313 311 309 306 303 303 303 303 303 302 301 301 302 302 301 300
199 268 275 132 199 266 215 184 29 13 129 129 177 217 190 118 99 113 263 330 51 255 268 259 266 279 295 282 278 94 261 258 253 246 222 210 201 200 207 198 191 192 187 182 181 181 183 182 187 194 202 211 212 213 233 272 288 289 294 299 306 319 328 329 329 328 325 321 317 314 312 309 306 304 303 303 304 305 304 303 302 302 302 302 301 300
146 254 284 102 201 295 6 90 17 341 68 125 192 222 127 148 185 110 163 240 208 244 271 278 282 277 247 241 281 236 221 240 243 222 202 208 209 209 208 196 191 187 181 182 182 184 184 182 188 195 201 208 208 215 244 275 285 291 296 303 317 328 329 326 326 326 323 320 316 312 310 308 306 305 305 305 305 304 303 302 304 303 302 302 301 301
111 210 277 331 272 309 22 153 189 225 27 83 93 345 64 178 179 161 172 193 181 231 271 293 307 288 252 201 232 232 211 223 229 208 201 211 211 210 202 191 190 188 187 188 184 183 182 185 191 196 201 204 205 219 251 274 285 291 298 315 331 332 327 326 326 324 321 318 315 311 310 309 309 309 308 308 307 305 304 304 305 304 303 302 301 301
102 196 246 319 334 257 192 205 192 183 175 172 200 223 224 184 149 230 212 169 182 228 259 284 291 281 269 169 199 223 207 216 219 203 205 215 213 209 200 192 192 191 191 186 180 180 181 187 193 196 200 200 206 230 259 275 283 291 309 330 336 330 325 325 325 323 320 317 314 312 311 311 312 312 311 310 309 307 306 306 306 305 304 303 301 300
156 188 205 180 229 216 216 234 205 195 183 178 194 201 200 188 162 246 254 216 194 231 237 176 268 275 273 146 190 212 196 216 215 197 204 214 213 206 200 198 194 191 191 182 177 179 178 186 191 190 192 195 209 238 259 271 282 300 324 336 331 324 322 322 321 320 317 315 314 313 314 315 315 315 314 313 311 310 311 310 308 307 305 303 302 301
135 135 201 217 220 220 246 305 322 260 244 211 218 194 187 189 174 200 236 224 178 236 233 99 271 270 259 135 186 205 202 227 206 189 205 212 210 203 197 199 194 191 190 177 174 178 178 184 185 182 186 195 215 241 256 269 289 316 329 330 323 319 320 320 319 318 316 315 315 316 317 317 318 318 317 315 314 314 314 312 310 309 307 303 301 302
103 123 216 259 299 355 331 335 3 23 34 259 244 191 183 206 201 204 221 178 155 223 187 110 253 260 266 101 191 216 247 259 200 190 207 208 205 203 196 195 193 188 184 176 178 180 174 177 175 176 186 197 219 239 252 273 305 323 323 319 317 316 318 318 317 316 316 317 317 318 319 320 321 321 320 318 317 316 314 312 312 310 308 305 302 302
191 174 180 252 295 319 330 342 335 328 263 232 237 197 204 220 214 210 55 131 246 219 165 183 251 258 269 69 43 309 292 262 221 210 216 208 200 200 196 195 191 184 181 181 181 176 170 170 171 178 189 202 221 238 256 290 314 316 313 313 314 314 315 316 316 317 319 320 320 321 321 322 323 323 321 320 318 317 314 312 313 311 307 306 304 302
186 180 174 207 234 247 252 236 213 220 208 226 239 210 213 216 208 210 212 222 242 217 171 208 250 262 267 242 130 276 260 248 240 229 228 224 210 201 196 193 190 186 186 185 180 175 174 173 177 184 191 205 222 240 269 299 306 305 307 310 312 313 313 315 318 320 322 322 321 322 323 325 326 325 324 322 319 317 314 312 312 310 305 304 305 304
149 189 204 211 218 230 244 241 187 134 159 204 217 214 212 211 209 211 220 231 233 208 200 232 245 262 271 266 261 260 247 235 236 228 223 224 213 202 199 195 192 190 187 182 175 171 173 175 182 186 192 206 222 245 272 288 294 298 304 308 311 312 313 317 320 321 325 329 329 329 329 329 330 328 325 323 320 315 312 312 310 307 304 303 305 304
113 222 223 221 227 235 247 249 197 145 208 225 221 220 210 206 207 201 216 228 220 154 243 246 246 255 265 268 271 268 256 235 229 224 217 216 209 201 198 192 189 187 183 180 176 173 176 181 185 185 190 202 218 241 260 276 285 291 300 304 308 312 316 321 325 327 332 335 334 331 330 330 328 325 321 319 316 312 311 311 307 304 304 304 304 304
145 237 234 221 236 245 250 254 231 200 242 248 248 244 214 190 203 206 218 227 215 213 245 253 258 259 262 267 272 270 267 252 234 226 215 213 207 194 191 188 186 187 185 182 179 176 180 182 180 179 184 194 209 230 252 269 278 288 296 298 304 315 322 327 333 337 336 334 331 329 330 329 325 321 318 315 313 312 311 309 306 306 305 302 300 300
162 243 240 214 242 252 250 252 243 239 258 263 262 258 231 188 208 216 223 229 225 233 246 258 265 265 266 270 269 270 274 264 238 226 210 207 200 188 191 192 189 190 188 183 180 180 182 179 171 171 174 184 203 222 245 260 272 286 293 298 312 327 334 336 339 339 336 331 329 329 329 326 320 317 316 314 313 313 311 308 308 309 307 306 304 299
205 237 237 169 240 257 254 248 228 231 251 260 263 262 247 214 223 229 231 233 233 241 248 254 261 265 268 268 268 272 277 260 233 222 209 205 196 190 195 194 190 191 187 182 180 178 177 170 164 167 172 184 203 220 235 254 275 283 290 308 326 335 340 341 340 337 333 330 328 328 326 322 318 317 317 315 314 313 313 312 310 310 309 309 309 307
203 227 228 128 224 256 258 230 187 215 261 263 262 261 251 232 231 236 236 231 229 239 247 251 254 259 264 267 271 275 264 239 232 225 213 206 197 194 197 193 191 192 187 183 181 174 173 172 169 171 177 186 201 215 227 251 272 271 289 322 335 338 340 342 340 335 331 329 328 326 323 321 319 319 318 316 315 315 315 315 313 313 312 311 311 312
182 201 202 160 223 257 257 111 113 73 5 264 258 254 244 236 233 239 245 239 231 232 241 247 247 250 257 265 274 272 251 230 231 225 207 202 201 198 198 194 193 192 186 180 176 172 173 173 169 172 179 185 196 207 220 244 258 266 305 333 339 342 343 342 340 334 330 329 326 324 323 323 322 320 318 318 317 316 317 317 316 315 315 314 313 312
190 204 205 176 216 248 193 106 90 107 241 255 258 207 217 219 217 227 239 242 236 229 233 244 251 258 260 262 264 263 255 237 230 224 205 195 195 198 200 200 195 187 182 177 172 172 171 160 158 168 176 185 191 199 211 227 251 292 334 347 348 349 347 343 339 335 331 328 326 325 326 325 323 320 319 319 319 318 318 318 318 318 316 315 315 313
190 201 199 195 218 231 126 102 188 231 236 260 330 138 198 203 203 221 238 245 243 236 237 246 251 254 257 258 257 260 262 251 229 222 212 198 192 192 194 197 191 180 177 174 169 166 155 142 151 161 172 182 184 182 196 222 271 333 356 360 356 353 350 345 340 337 333 329 328 328 327 326 324 321 320 321 321 320 320 320 320 321 320 318 317 317
184 185 188 196 187 198 169 191 231 249 274 297 294 232 163 160 196 226 260 260 251 236 233 244 247 249 254 256 256 260 269 273 251 233 219 207 199 193 190 190 185 180 178 173 166 162 155 155 161 166 171 176 171 168 192 242 325 1 8 5 360 356 352 348 342 337 333 329 328 328 328 327 325 322 321 322 322 321 321 323 324 324 323 322 320 318
180 170 196 213 194 217 232 227 246 277 297 285 272 236 170 199 199 187 251 267 262 231 214 237 247 248 251 252 253 251 81 42 297 260 228 214 205 196 189 184 177 172 168 158 151 152 154 158 163 167 168 162 157 169 199 305 7 17 14 9 5 359 354 349 342 336 332 329 328 328 328 327 324 321 321 322 322 322 323 325 325 326 325 324 321 320
194 184 203 215 208 222 236 243 254 259 258 261 260 208 177 203 190 166 219 268 273 235 200 227 242 244 248 249 230 120 95 23 276 258 221 193 185 173 161 158 155 153 146 138 135 139 146 154 159 161 159 149 149 173 196 30 29 26 22 16 8 0 355 348 339 335 332 329 329 328 327 326 324 322 321 322 322 323 324 326 326 326 326 323 320 319
215 216 215 218 226 226 226 238 240 235 249 257 244 145 163 160 134 109 138 268 272 246 196 211 230 237 243 228 162 131 123 213 260 258 191 164 167 156 144 139 136 135 135 138 141 143 147 152 153 149 145 142 154 175 119 52 40 34 28 19 10 1 354 344 337 335 332 329 328 327 326 326 326 324 323 322 323 324 325 326 326 325 325 323 320 317
212 222 215 216 229 226 224 237 240 237 259 260 192 142 178 148 117 97 264 263 267 232 185 200 220 232 228 176 150 160 179 210 248 253 153 150 151 144 144 145 142 137 134 138 143 146 148 149 147 143 142 150 165 164 96 60 46 42 33 20 11 2 349 340 337 336 331 328 327 327 329 330 329 327 325 323 324 326 326 327 327 326 326 324 321 320
203 212 208 214 225 224 225 236 244 251 255 240 150 149 165 125 101 214 248 252 237 161 183 195 208 218 191 154 164 192 203 210 199 126 135 140 136 134 139 139 136 136 136 139 144 145 144 146 144 143 148 159 160 133 87 64 50 44 34 22 12 357 344 340 338 335 331 329 330 331 333 334 332 329 328 328 327 327 327 330 329 328 327 325 323 323
187 194 206 215 221 223 228 235 247 263 250 181 143 159 163 141 211 234 238 235 145 175 196 192 198 200 173 173 193 199 188 149 126 135 144 146 144 142 140 133 125 126 132 138 143 145 142 140 140 143 151 157 142 111 78 61 54 46 35 24 9 351 343 341 338 335 332 332 333 335 337 337 335 333 332 332 331 329 329 331 332 331 329 326 324 324
178 175 202 208 208 212 229 228 236 256 220 142 132 159 192 199 228 238 236 148 168 183 187 191 200 192 175 189 202 185 146 136 143 149 151 150 149 143 143 145 139 134 138 141 146 149 145 140 145 152 154 146 124 102 79 61 55 48 37 23 3 348 345 343 338 336 335 335 337 339 340 339 338 337 336 335 335 333 330 332 334 333 332 330 327 325
172 187 208 204 190 174 198 212 220 233 188 146 149 187 208 211 226 233 223 223 205 173 180 195 202 194 187 191 189 172 160 155 156 157 153 152 151 145 146 150 143 138 143 144 150 154 149 146 151 153 144 132 116 99 80 62 54 50 39 19 357 349 348 345 341 339 339 340 341 341 341 341 340 340 340 340 339 337 334 334 336 335 334 334 331 326
197 203 209 206 198 193 208 222 222 212 163 170 193 211 208 213 226 218 197 219 216 183 187 191 196 198 193 184 174 169 170 165 163 163 158 155 155 151 150 152 146 141 142 144 150 155 154 153 152 143 132 124 115 100 81 63 53 49 37 13 357 353 349 345 342 342 342 343 343 343 342 342 343 343 343 344 344 341 337 336 336 336 335 336 334 328
218 210 197 205 210 217 245 249 233 187 178 199 217 227 213 213 221 192 182 222 212 184 185 189 191 192 183 173 170 173 177 169 163 163 162 157 154 150 146 144 142 141 140 143 151 157 157 153 144 134 126 120 112 103 88 70 58 49 33 12 1 355 349 345 344 343 344 345 345 346 345 344 344 346 346 347 347 344 340 338 337 335 335 336 334 327
240 202 186 217 205 195 241 246 230 216 219 217 221 233 235 228 217 195 205 222 207 180 189 195 190 183 177 173 173 174 176 168 160 160 161 156 153 153 149 143 141 146 148 151 157 161 159 149 137 131 128 124 121 114 99 79 63 52 33 14 6 356 349 349 347 344 346 348 346 347 348 346 345 346 347 348 348 346 344 343 339 336 337 336 332 327
200 177 184 224 222 213 239 249 239 226 238 233 219 224 231 228 220 213 214 215 197 184 191 193 183 176 174 178 176 169 167 167 164 161 160 160 160 158 153 147 142 145 150 156 163 167 162 147 137 135 132 131 131 124 112 96 72 55 33 13 6 356 350 352 351 348 349 350 348 349 349 348 347 347 348 348 347 345 344 344 342 339 339 339 336 333
144 166 178 206 222 232 252 255 250 279 271 247 223 217 225 223 216 215 213 200 183 186 192 191 188 178 173 176 174 163 161 170 172 164 159 161 162 155 149 146 141 143 152 161 169 171 160 145 139 137 134 136 139 131 121 111 84 56 34 14 3 357 353 352 353 353 353 352 351 352 351 349 349 349 347 346 347 346 345 346 344 338 338 342 344 344
153 203 193 177 210 228 240 242 232 219 246 246 224 214 222 224 214 208 204 191 190 195 190 182 183 185 181 179 171 162 165 172 172 164 161 164 165 158 148 141 136 141 154 164 169 166 154 144 141 139 137 138 141 138 132 120 99 66 35 16 3 358 357 354 353 354 354 354 354 354 351 349 349 350 348 346 346 345 345 349 351 346 341 342 346 350
197 212 198 188 216 227 231 235 228 209 229 246 237 217 215 215 209 207 204 200 202 201 187 174 173 179 186 185 173 167 168 167 165 163 162 164 165 154 147 151 151 150 159 165 164 155 146 142 141 141 141 144 146 145 140 127 110 83 44 20 4 1 2 358 354 353 352 354 355 355 352 349 349 349 349 347 347 346 345 346 350 353 354 352 349 352